Home > Weather > Bologna > Past weeks

Flag for Italy Past Weather in Bologna, Italy — Yesterday and Last 2 Weeks

Now
73 °F

Clear.


Feels Like: 77 °F
Forecast: 61 / 75 °F
Wind: 10 mph from Southwest

Location: Bologna / Borgo Panigale

Current Time: May 29, 2016 at 2:05:38 AM

Latest Report: May 29, 2016 at 1:20 AM


Visibility: 10 mi

Pressure: 29.83 "Hg

Humidity: 44%

Dew Point: 50 °F

Location of BolognaLocation

Past Weather in Bologna — Graph

°F

Bologna Temperature Yesterday

Maximum temperature yesterday: 84 °F (at 4:50 PM)
Minimum temperature yesterday: 59 °F (at 2:50 AM)
Average temperature yesterday: 72 °F

High & Low Weather Summary for the Past Weeks

 TemperatureHumidityPressure
High84 °F (May 28, 4:50 PM)100% (May 15, 1:50 AM)30.12 "Hg (May 15, 1:50 AM)
Low48 °F (May 17, 5:50 AM)32% (May 24, 3:50 PM)29.53 "Hg (May 14, 12:20 AM)
Average65 °F64%29.92 "Hg
* Reported May 14 12:20 AM — May 29 12:50 AM, Bologna, Weather by CustomWeather, © 2016

Note: Actual official high and low records may vary slightly from our data, if they occured in-between our weather recording intervals... More about our weather records

Advertising

Bologna Weather History for the Previous 24 Hours

Scroll right to see more
 ConditionsComfort  
Time TempWeatherWind HumidityBarometerVisibility
12:50 AM
Sun, May 29
73 °FClear.7 mph44%29.83 "Hg10 mi
12:20 AM73 °FClear.7 mph47%29.83 "Hg10 mi
11:50 PM
Sat, May 28
68 °FPassing clouds.6 mph78%29.83 "HgN/A
11:20 PM70 °FClear.6 mph73%29.83 "Hg10 mi
10:50 PM72 °FClear.7 mph69%29.86 "Hg10 mi
10:20 PM72 °FClear.8 mph69%29.86 "Hg10 mi
9:50 PM72 °FClear.7 mph69%29.86 "Hg10 mi
9:20 PM73 °FSunny.8 mph65%29.86 "Hg10 mi
8:50 PM73 °FSunny.8 mph65%29.86 "Hg10 mi
8:20 PM75 °FPassing clouds.8 mph65%29.86 "HgN/A
7:50 PM77 °FPassing clouds.9 mph65%29.86 "HgN/A
6:50 PM79 °FPassing clouds.12 mph65%29.86 "HgN/A
6:20 PM82 °FPassing clouds.6 mph51%29.86 "HgN/A
5:50 PM82 °FPassing clouds.5 mph51%29.86 "HgN/A
5:20 PM82 °FPassing clouds.5 mph51%29.86 "HgN/A
4:50 PM84 °FPassing clouds.6 mph48%29.89 "HgN/A
4:20 PM82 °FPassing clouds.5 mph48%29.89 "HgN/A
3:50 PM82 °FPassing clouds.6 mph51%29.89 "HgN/A
3:20 PM82 °FPassing clouds.8 mph51%29.89 "HgN/A
2:50 PM82 °FPassing clouds.7 mph55%29.89 "HgN/A
2:20 PM81 °FPassing clouds.5 mph58%29.89 "HgN/A
1:50 PM81 °FPassing clouds.3 mph62%29.92 "HgN/A
1:20 PM81 °FSunny.6 mph54%29.92 "Hg10 mi
12:50 PM79 °FSunny.3 mph61%29.92 "Hg10 mi
12:20 PM79 °FSunny.3 mph58%29.92 "Hg10 mi
11:50 AM77 °FSunny.2 mph61%29.92 "Hg10 mi
11:20 AM77 °FPassing clouds.5 mph65%29.95 "HgN/A
10:50 AM77 °FSunny.2 mph61%29.95 "Hg10 mi
10:20 AM73 °FPassing clouds.3 mph65%29.95 "HgN/A
9:50 AM72 °FPassing clouds.3 mph69%29.95 "HgN/A
9:20 AM72 °FSunny.2 mph69%29.95 "Hg10 mi
8:50 AM70 °FSunny.2 mph69%29.95 "Hg10 mi
8:20 AM68 °FSunny.1 mph73%29.95 "Hg10 mi
7:50 AM66 °FPassing clouds.3 mph78%29.95 "HgN/A
7:20 AM64 °FPassing clouds.3 mph83%29.95 "HgN/A
6:50 AM63 °FSunny.5 mph88%29.95 "Hg10 mi
6:20 AM63 °FPassing clouds.6 mph88%29.95 "HgN/A
5:50 AM61 °FClear.3 mph88%29.95 "Hg10 mi
5:20 AM61 °FClear.3 mph94%29.95 "Hg10 mi
4:50 AM61 °FClear.No wind88%29.98 "Hg10 mi
3:50 AM59 °FClear.2 mph94%29.98 "Hg10 mi
3:20 AM61 °FClear.2 mph88%29.98 "Hg10 mi
2:50 AM59 °FClear.2 mph88%29.95 "Hg10 mi
Weather by CustomWeather, © 2016

See weather overviewHow to use our weather pages